カタログに戻る

NOAA 16 DEB

運用中SSO
NORAD 41361·DEBRIS·🇺🇸 United States

打ち上げ Sep 21, 2000 から Vandenberg Space Force Base

Loading…

次のパス (今後24時間)

TLE

最新Source: Space-Track

元期: Sep 13, 2026, 01:20 UTC

1 41361U 00055JE  26256.05607543  .00002013  00000-0  93025-3 0  9994
2 41361  98.7450 298.5898 0029173   3.2464 356.8898 14.21802664545027

AllMySatでNOAA 16 DEBをリアルタイム追跡

Download on the App Store